| time (UTC) | temp F | wind direction | speed knots | gust knots | rain 1hr in | rain 24hr in | rain mn in | humidity % | barometer mb |
| 20260906234522 | 80 | 212 | 2.6 | 5.2 | 0.00 | 0.00 | 0.00 | 29 | 1015.6 |
| 20260906234020 | 80 | 222 | 3.5 | 7.0 | 0.00 | 0.00 | 0.00 | 29 | 1015.8 |
| 20260906233518 | 80 | 206 | 2.6 | 6.1 | 0.00 | 0.00 | 0.00 | 30 | 1015.8 |
| 20260906233036 | 79 | 212 | 4.3 | 9.6 | 0.00 | 0.00 | 0.00 | 30 | 1015.9 |
| 20260906232534 | 80 | 219 | 4.3 | 7.8 | 0.00 | 0.00 | 0.00 | 29 | 1016.0 |
| 20260906232033 | 80 | 221 | 3.5 | 7.8 | 0.00 | 0.00 | 0.00 | 30 | 1016.0 |
| 20260906231531 | 80 | 214 | 3.5 | 7.8 | 0.00 | 0.00 | 0.00 | 29 | 1016.0 |
| 20260906231028 | 80 | 248 | 4.3 | 7.8 | 0.00 | 0.00 | 0.00 | 29 | 1015.9 |
| 20260906230526 | 80 | 257 | 2.6 | 6.1 | 0.00 | 0.00 | 0.00 | 29 | 1016.2 |
| 20260906230024 | 80 | 248 | 3.5 | 7.8 | 0.00 | 0.00 | 0.00 | 29 | 1016.2 |
| 20260906225523 | 80 | 256 | 4.3 | 8.7 | 0.00 | 0.00 | 0.00 | 29 | 1016.2 |
| 20260906225021 | 81 | 247 | 6.1 | 13.9 | 0.00 | 0.00 | 0.00 | 29 | 1016.3 |
| 20260906224518 | 81 | 282 | 5.2 | 11.3 | 0.00 | 0.00 | 0.00 | 29 | 1016.3 |
| 20260906224037 | 81 | 271 | 5.2 | 12.2 | 0.00 | 0.00 | 0.00 | 29 | 1016.3 |
| 20260906223535 | 82 | 269 | 5.2 | 9.6 | 0.00 | 0.00 | 0.00 | 28 | 1016.2 |
| 20260906223033 | 83 | 256 | 5.2 | 8.7 | 0.00 | 0.00 | 0.00 | 27 | 1016.2 |
| 20260906222530 | 83 | 283 | 4.3 | 8.7 | 0.00 | 0.00 | 0.00 | 27 | 1016.4 |
| 20260906222049 | 84 | 271 | 4.3 | 9.6 | 0.00 | 0.00 | 0.00 | 28 | 1016.5 |
| 20260906221527 | 84 | 270 | 5.2 | 11.3 | 0.00 | 0.00 | 0.00 | 27 | 1016.4 |
| 20260906221025 | 84 | 273 | 5.2 | 11.3 | 0.00 | 0.00 | 0.00 | 27 | 1016.7 |
| 20260906220523 | 84 | 271 | 6.1 | 13.9 | 0.00 | 0.00 | 0.00 | 27 | 1016.8 |